Regional Weather Roundup
Issued by NWS

Home | Current Version | Previous Version | Text Only | Print | Product List | Glossary On
Versions: 1 2 3 4 5 6 7 8 9 10 11 12 13 14 15 16 17 18 19 20 21 22 23 24 25 26 27 28
000
ASUS44 KJAN 302110
RWRMS

MISSISSIPPI HOURLY WEATHER ROUNDUP
NATIONAL WEATHER SERVICE JACKSON MS
400 PM CDT SUN APR 30 2017

NOTE: "FAIR: INDICATES FEW OR NO CLOUDS BELOW 12,000 FEET WITH NO
SIGNIFICANT WEATHER AND/OR OBSTRUCTIONS TO VISIBILITY.

MSZ001>002-007>008-010>013-018>021-025>028-034>036-302200-
NORTHWEST MISSISSIPPI

CITY           SKY/WX    TMP DP  RH WIND       PRES   REMARKS
CLARKSDALE     CLOUDY    72  72 100 S14G22    29.73S
CLEVELAND      CLOUDY    74  72  94 S18       29.73F
GREENWOOD      CLOUDY    70  66  87 S22G30    29.77S
GREENVILLE     PTSUNNY   69  63  81 W18G26    29.76F
OLIVE BRANCH   CLOUDY   N/A N/A N/A S16G28    29.70F
OXFORD         PTSUNNY   68  63  83 S15G25    29.78R
TUNICA         CLOUDY    70  66  88 S20G32    29.72R
WINONA         CLOUDY    68  66  92 S13G25    29.79S
$$

MSZ003>006-009-014>017-022>024-029>033-037>039-302200-
NORTHEAST MISSISSIPPI

CITY           SKY/WX    TMP DP  RH WIND       PRES   REMARKS
COLUMBUS AFB   CLOUDY    67  67  98 S20       29.80F
CORINTH        CLOUDY    72  64  78 S20G29    29.76S
STARKVILLE     CLOUDY    66  64  94 S14G28    29.82R
TUPELO         CLOUDY    69  64  84 S10       29.77F
$$

MSZ040-058-302200-
CENTRAL MISSISSIPPI

CITY           SKY/WX    TMP DP  RH WIND       PRES   REMARKS
JACKSON INTL   CLOUDY    70  66  87 S14       29.83R
JACKSON HAWKNS LGT RAIN  69  67  93 S9        29.83R FOG
MADISON        CLOUDY    68  64  88 S8        29.82S
MERIDIAN KEY   LGT RAIN  69  66  90 SE17G33   29.81F
MERIDIAN NAS   LGT RAIN  69  63  81 SE12      29.87F
RAYMOND          N/A    N/A N/A N/A MISG        N/A
VICKSBURG VKS  PTCLDY    77  68  73 SW12      29.78S
$$

MSZ059>079-302200-
SOUTH MISSISSIPPI

CITY           SKY/WX    TMP DP  RH WIND       PRES   REMARKS
HATTIESBURG    LGT RAIN  68  66  93 SE14      29.86F
LAUREL         MOCLDY    67  67 100 SE12G20   29.84R
MCCOMB         CLOUDY    71  68  90 S12       29.84S
NATCHEZ        MOSUNNY   74  65  73 W10G22    29.83F
PINE BELT      CLOUDY    66  63  88 S12G22    29.86R
$$

MSZ080>082-302200-
COASTAL MISSISSIPPI

CITY           SKY/WX    TMP DP  RH WIND       PRES   REMARKS
BAY ST LOUIS   TSTM      70  64  83 SE9       29.85F
BILOXI         TSTM      70  68  94 S14G21    29.93F
PASCAGOULA     TSTM      71  66  84 W8        29.97R
GULFPORT       TSTM      71  69  93 SE29G37   29.88F FOG
$$

LAZ007>009-015>016-023>026-302200-
NORTHEAST LOUISIANA

CITY           SKY/WX    TMP DP  RH WIND       PRES   REMARKS
BASTROP        CLOUDY    62  57  85 SW9       29.82F
TALLULAH/VBURG CLOUDY    77  65  66 VRB7      29.79F
VIDALIA        MOCLDY    68  61  79 W15       29.84S
$$




USA.gov is the U.S. government's official web portal to all federal, state and local government web resources and services.